Simultaneous Nadir Overpasses (SNOs) Predictions

Prediction of SNOs between METOP-A and NPP Satellite Orbit:

Table of predicted SNOs for the next 14.0 days since TLE Epoch: 5/8/2021
Index Date (METOP-A) Time (METOP-A) Lat,Lon (METOP-A) SZA (METOP-A ) Date (NPP) Time (NPP) Lat,Lon (NPP) SZA (NPP ) Distance(km) Time Diff (sec)
1 05/19/2021 21:36:09 76.97,-161.69 57.55 05/19/2021 21:35:00 76.98,-163.96 57.77 56.93 69
2 05/19/2021 22:26:54 -76.83, 5.12 122.55 05/19/2021 22:25:42 -76.87, 3.82 122.39 33.08 72
3 05/19/2021 23:17:37 76.68, 171.87 57.34 05/19/2021 23:16:23 76.68, 171.88 57.37 0.38 74
4 05/20/2021 00:08:19 -76.68, -20.80 122.67 05/20/2021 00:07:08 -76.69, -20.87 122.62 2.45 71
5 05/20/2021 00:58:59 76.66, 146.46 57.32 05/20/2021 00:57:53 76.68, 146.50 57.36 2.62 66
6 05/20/2021 01:49:41 -76.66, -46.21 122.69 05/20/2021 01:48:37 -76.65, -46.08 122.69 3.51 64
7 05/20/2021 02:40:20 76.68, 121.21 57.32 05/20/2021 02:39:23 76.68, 121.12 57.34 2.39 57
8 05/20/2021 03:31:02 -76.69, -71.46 122.69 05/20/2021 03:30:07 -76.65, -71.46 122.70 3.61 55
9 05/20/2021 04:21:42 76.66, 95.80 57.29 05/20/2021 04:20:53 76.68, 95.74 57.33 2.55 49
10 05/20/2021 05:12:24 -76.67, -96.87 122.72 05/20/2021 05:11:37 -76.66, -96.84 122.71 1.45 47
11 05/20/2021 06:03:04 76.65, 70.39 57.27 05/20/2021 06:02:22 76.64, 70.53 57.26 3.62 42
12 05/20/2021 06:53:46 -76.65,-122.28 122.74 05/20/2021 06:53:07 -76.66,-122.22 122.73 1.76 39
13 05/20/2021 07:44:25 76.67, 45.14 57.27 05/20/2021 07:43:52 76.64, 45.15 57.25 3.33 33
14 05/20/2021 08:35:07 -76.67,-147.52 122.74 05/20/2021 08:34:37 -76.66,-147.61 122.74 2.67 30
15 05/20/2021 09:25:47 76.65, 19.73 57.24 05/20/2021 09:25:22 76.64, 19.76 57.24 1.28 25
16 05/20/2021 10:16:29 -76.65,-172.94 122.77 05/20/2021 10:16:07 -76.66,-172.99 122.75 1.46 22
17 05/20/2021 11:07:09 76.63, -5.68 57.21 05/20/2021 11:06:52 76.65, -5.62 57.23 2.10 17
18 05/20/2021 11:57:51 -76.64, 161.65 122.80 05/20/2021 11:57:37 -76.66, 161.63 122.76 3.02 14
19 05/20/2021 12:48:30 76.66, -30.93 57.22 05/20/2021 12:48:22 76.65, -31.00 57.22 2.35 8
20 05/20/2021 13:39:12 -76.66, 136.41 122.79 05/20/2021 13:39:07 -76.66, 136.25 122.78 4.06 5
21 05/20/2021 14:29:52 76.64, -56.34 57.19 05/20/2021 14:29:52 76.65, -56.38 57.20 1.53 0
22 05/20/2021 15:20:34 -76.64, 111.00 122.82 05/20/2021 15:20:36 -76.62, 111.04 122.84 2.60 2
23 05/20/2021 16:11:14 76.62, -81.75 57.16 05/20/2021 16:11:22 76.65, -81.76 57.19 3.38 8
24 05/20/2021 17:01:56 -76.62, 85.59 122.85 05/20/2021 17:02:06 -76.62, 85.66 122.85 1.84 10
25 05/20/2021 17:52:35 76.65,-106.99 57.17 05/20/2021 17:52:52 76.65,-107.15 57.18 3.95 17
26 05/20/2021 18:43:17 -76.65, 60.34 122.84 05/20/2021 18:43:36 -76.63, 60.28 122.87 3.22 19
27 05/20/2021 19:33:57 76.63,-132.41 57.14 05/20/2021 19:34:21 76.61,-132.36 57.11 2.34 24
28 05/20/2021 20:24:39 -76.63, 34.93 122.87 05/20/2021 20:25:06 -76.63, 34.89 122.88 0.99 27
29 05/20/2021 21:15:19 76.61,-157.82 57.11 05/20/2021 21:15:51 76.61,-157.74 57.10 2.05 32
30 05/20/2021 22:06:01 -76.61, 9.52 122.90 05/20/2021 22:06:36 -76.63, 9.51 122.89 1.91 35
31 05/20/2021 22:56:40 76.64, 176.94 57.12 05/20/2021 22:57:21 76.61, 176.88 57.09 2.77 41
32 05/20/2021 23:47:22 -76.64, -15.73 122.89 05/20/2021 23:48:06 -76.63, -15.87 122.90 3.72 44
33 05/21/2021 00:38:02 76.62, 151.53 57.09 05/21/2021 00:38:51 76.62, 151.50 57.08 0.73 49
34 05/21/2021 01:28:44 -76.62, -41.14 122.92 05/21/2021 01:29:36 -76.63, -41.25 122.91 3.25 52
35 05/21/2021 02:19:24 76.60, 126.11 57.06 05/21/2021 02:20:21 76.62, 126.12 57.07 2.38 57
36 05/21/2021 03:10:06 -76.60, -66.55 122.95 05/21/2021 03:11:05 -76.59, -66.46 122.98 2.50 59
37 05/21/2021 04:00:45 76.62, 100.87 57.07 05/21/2021 04:01:51 76.62, 100.73 57.05 3.49 66
38 05/21/2021 04:51:28 -76.58, -91.96 122.97 05/21/2021 04:52:35 -76.59, -91.85 122.99 3.24 67
39 05/21/2021 05:42:07 76.60, 75.46 57.04 05/21/2021 05:43:21 76.62, 75.35 57.04 3.38 74
40 05/21/2021 06:32:51 -76.52,-117.53 123.03 05/21/2021 06:34:04 -76.55,-117.06 123.06 12.88 73
41 05/21/2021 07:23:36 76.26, 48.92 56.81 05/21/2021 07:24:44 76.31, 51.14 56.64 58.75 68
42 05/21/2021 08:14:20 -76.17,-144.05 123.26 05/21/2021 08:15:27 -76.24,-141.29 123.46 73.64 67



Historial Predications of SNOs between METOP-A and NPP
